#Datum;Uhrzeit;WR;Pac;DaySum;Status;WR;Pac;DaySum;Status;Pdc1;Udc;Temp;WR;Pac;DaySum;Status;Pdc1;Udc;Temp;WR;Pac;DaySum;Status;Pdc1;Udc;Temp;WR;Pac;DaySum;Status;Pdc1;Pdc2;Udc1;Udc2;Temp;WR;Pac;DaySum;Status;Pdc1;Pdc2;Udc1;Udc2;Temp;WR;Pac;DaySum;Status;Pdc1;Udc;Temp;WR;Pac;DaySum;Status;Pdc1;Udc;Temp;WR;Pac;DaySum;Status;Pdc1;Udc;Temp
12.12.17;23:55:00;1;483;15083;0;2;0;1652;0;0;0;0;3;0;984;0;0;0;0;4;0;1346;0;0;0;0;5;0;3739;0;0;0;0;0;0;6;0;1438;0;0;0;0;0;0;7;0;1677;0;0;0;0;8;0;1696;0;0;0;0;9;0;881;0;0;0;0
12.12.17;23:50:00;1;286;15033;0;2;0;1652;0;0;0;0;3;0;984;0;0;0;0;4;0;1346;0;0;0;0;5;0;3739;0;0;0;0;0;0;6;0;1438;0;0;0;0;0;0;7;0;1677;0;0;0;0;8;0;1696;0;0;0;0;9;0;881;0;0;0;0
12.12.17;23:45:00;1;288;15009;0;2;0;1652;0;0;0;0;3;0;984;0;0;0;0;4;0;1346;0;0;0;0;5;0;3739;0;0;0;0;0;0;6;0;1438;0;0;0;0;0;0;7;0;1677;0;0;0;0;8;0;1696;0;0;0;0;9;0;881;0;0;0;0
12.12.17;23:40:00;1;286;14985;0;2;0;1652;0;0;0;0;3;0;984;0;0;0;0;4;0;1346;0;0;0;0;5;0;3739;0;0;0;0;0;0;6;0;1438;0;0;0;0;0;0;7;0;1677;0;0;0;0;8;0;1696;0;0;0;0;9;0;881;0;0;0;0
12.12.17;23:35:00;1;493;14950;0;2;0;1652;0;0;0;0;3;0;984;0;0;0;0;4;0;1346;0;0;0;0;5;0;3739;0;0;0;0;0;0;6;0;1438;0;0;0;0;0;0;7;0;1677;0;0;0;0;8;0;1696;0;0;0;0;9;0;881;0;0;0;0
12.12.17;23:30:00;1;287;14910;0;2;0;1652;0;0;0;0;3;0;984;0;0;0;0;4;0;1346;0;0;0;0;5;0;3739;0;0;0;0;0;0;6;0;1438;0;0;0;0;0;0;7;0;1677;0;0;0;0;8;0;1696;0;0;0;0;9;0;881;0;0;0;0
12.12.17;23:25:00;1;321;14886;0;2;0;1652;0;0;0;0;3;0;984;0;0;0;0;4;0;1346;0;0;0;0;5;0;3739;0;0;0;0;0;0;6;0;1438;0;0;0;0;0;0;7;0;1677;0;0;0;0;8;0;1696;0;0;0;0;9;0;881;0;0;0;0
12.12.17;23:20:00;1;731;14858;0;2;0;1652;0;0;0;0;3;0;984;0;0;0;0;4;0;1346;0;0;0;0;5;0;3739;0;0;0;0;0;0;6;0;1438;0;0;0;0;0;0;7;0;1677;0;0;0;0;8;0;1696;0;0;0;0;9;0;881;0;0;0;0
12.12.17;23:15:00;1;370;14803;0;2;0;1652;0;0;0;0;3;0;984;0;0;0;0;4;0;1346;0;0;0;0;5;0;3739;0;0;0;0;0;0;6;0;1438;0;0;0;0;0;0;7;0;1677;0;0;0;0;8;0;1696;0;0;0;0;9;0;881;0;0;0;0
12.12.17;23:10:00;1;348;14771;0;2;0;1652;0;0;0;0;3;0;984;0;0;0;0;4;0;1346;0;0;0;0;5;0;3739;0;0;0;0;0;0;6;0;1438;0;0;0;0;0;0;7;0;1677;0;0;0;0;8;0;1696;0;0;0;0;9;0;881;0;0;0;0
12.12.17;23:05:00;1;831;14742;0;2;0;1652;0;0;0;0;3;0;984;0;0;0;0;4;0;1346;0;0;0;0;5;0;3739;0;0;0;0;0;0;6;0;1438;0;0;0;0;0;0;7;0;1677;0;0;0;0;8;0;1696;0;0;0;0;9;0;881;0;0;0;0
12.12.17;23:00:00;1;450;14679;0;2;0;1652;0;0;0;0;3;0;984;0;0;0;0;4;0;1346;0;0;0;0;5;0;3739;0;0;0;0;0;0;6;0;1438;0;0;0;0;0;0;7;0;1677;0;0;0;0;8;0;1696;0;0;0;0;9;0;881;0;0;0;0
12.12.17;22:55:00;1;444;14641;0;2;0;1652;0;0;0;0;3;0;984;0;0;0;0;4;0;1346;0;0;0;0;5;0;3739;2;0;0;0;0;0;6;0;1438;2;0;0;0;0;0;7;0;1677;0;0;0;0;8;0;1696;0;0;0;0;9;0;881;0;0;0;0
12.12.17;22:50:00;1;971;14604;0;2;0;1652;0;0;0;0;3;0;984;0;0;0;0;4;0;1346;0;0;0;0;5;0;3739;2;0;0;0;0;0;6;0;1438;2;0;0;0;0;0;7;0;1677;0;0;0;0;8;0;1696;0;0;0;0;9;0;881;0;0;0;0
12.12.17;22:45:00;1;436;14537;0;2;0;1652;0;0;0;0;3;0;984;0;0;0;0;4;0;1346;0;0;0;0;5;0;3739;2;0;0;0;0;0;6;0;1438;2;0;0;0;0;0;7;0;1677;0;0;0;0;8;0;1696;0;0;0;0;9;0;881;0;0;0;0
12.12.17;22:40:00;1;440;14500;0;2;0;1652;0;0;0;0;3;0;984;0;0;0;0;4;0;1346;0;0;0;0;5;0;3739;2;0;0;0;0;0;6;0;1438;2;0;0;0;0;0;7;0;1677;0;0;0;0;8;0;1696;0;0;0;0;9;0;881;0;0;0;0
12.12.17;22:35:00;1;838;14464;0;2;0;1652;0;0;0;0;3;0;984;0;0;0;0;4;0;1346;0;0;0;0;5;0;3739;2;0;0;0;0;0;6;0;1438;2;0;0;0;0;0;7;0;1677;0;0;0;0;8;0;1696;0;0;0;0;9;0;881;0;0;0;0
12.12.17;22:30:00;1;484;14394;0;2;0;1652;0;0;0;0;3;0;984;0;0;0;0;4;0;1346;0;0;0;0;5;0;3739;2;0;0;0;0;0;6;0;1438;2;0;0;0;0;0;7;0;1677;0;0;0;0;8;0;1696;0;0;0;0;9;0;881;0;0;0;0
12.12.17;22:25:00;1;549;14353;0;2;0;1652;0;0;0;0;3;0;984;0;0;0;0;4;0;1346;0;0;0;0;5;0;3739;2;0;0;0;0;0;6;0;1438;2;0;0;0;0;0;7;0;1677;0;0;0;0;8;0;1696;0;0;0;0;9;0;881;0;0;0;0
12.12.17;22:20:00;1;758;14308;0;2;0;1652;0;0;0;0;3;0;984;0;0;0;0;4;0;1346;0;0;0;0;5;0;3739;2;0;0;0;0;0;6;0;1438;2;0;0;0;0;0;7;0;1677;0;0;0;0;8;0;1696;0;0;0;0;9;0;881;0;0;0;0
12.12.17;22:15:00;1;508;14235;0;2;0;1652;0;0;0;0;3;0;984;0;0;0;0;4;0;1346;0;0;0;0;5;0;3739;2;0;0;0;0;0;6;0;1438;2;0;0;0;0;0;7;0;1677;0;0;0;0;8;0;1696;0;0;0;0;9;0;881;0;0;0;0
12.12.17;22:10:00;1;508;14192;0;2;0;1652;0;0;0;0;3;0;984;0;0;0;0;4;0;1346;0;0;0;0;5;0;3739;2;0;0;0;0;0;6;0;1438;2;0;0;0;0;0;7;0;1677;0;0;0;0;8;0;1696;0;0;0;0;9;0;881;0;0;0;0
12.12.17;22:05:00;1;715;14150;0;2;0;1652;0;0;0;0;3;0;984;0;0;0;0;4;0;1346;0;0;0;0;5;0;3739;2;0;0;0;0;0;6;0;1438;2;0;0;0;0;0;7;0;1677;0;0;0;0;8;0;1696;0;0;0;0;9;0;881;0;0;0;0
12.12.17;22:00:00;1;516;14079;0;2;0;1652;0;0;0;0;3;0;984;0;0;0;0;4;0;1346;0;0;0;0;5;0;3739;2;0;0;0;0;0;6;0;1438;2;0;0;0;0;0;7;0;1677;0;0;0;0;8;0;1696;0;0;0;0;9;0;881;0;0;0;0
12.12.17;21:55:00;1;519;14036;0;2;0;1652;0;0;0;0;3;0;984;0;0;0;0;4;0;1346;0;0;0;0;5;0;3739;2;0;0;0;0;0;6;0;1438;2;0;0;0;0;0;7;0;1677;0;0;0;0;8;0;1696;0;0;0;0;9;0;881;0;0;0;0
12.12.17;21:50:00;1;698;13992;0;2;0;1652;0;0;0;0;3;0;984;0;0;0;0;4;0;1346;0;0;0;0;5;0;3739;2;0;0;0;0;0;6;0;1438;2;0;0;0;0;0;7;0;1677;0;0;0;0;8;0;1696;0;0;0;0;9;0;881;0;0;0;0
12.12.17;21:45:00;1;521;13922;0;2;0;1652;0;0;0;0;3;0;984;0;0;0;0;4;0;1346;0;0;0;0;5;0;3739;2;0;0;0;0;0;6;0;1438;2;0;0;0;0;0;7;0;1677;0;0;0;0;8;0;1696;0;0;0;0;9;0;881;0;0;0;0
12.12.17;21:40:00;1;524;13878;0;2;0;1652;0;0;0;0;3;0;984;0;0;0;0;4;0;1346;0;0;0;0;5;0;3739;2;0;0;0;0;0;6;0;1438;2;0;0;0;0;0;7;0;1677;0;0;0;0;8;0;1696;0;0;0;0;9;0;881;0;0;0;0
12.12.17;21:35:00;1;726;13834;0;2;0;1652;0;0;0;0;3;0;984;0;0;0;0;4;0;1346;0;0;0;0;5;0;3739;2;0;0;0;0;0;6;0;1438;2;0;0;0;0;0;7;0;1677;0;0;0;0;8;0;1696;0;0;0;0;9;0;881;0;0;0;0
12.12.17;21:30:00;1;718;13764;0;2;0;1652;0;0;0;0;3;0;984;0;0;0;0;4;0;1346;0;0;0;0;5;0;3739;2;0;0;0;0;0;6;0;1438;2;0;0;0;0;0;7;0;1677;0;0;0;0;8;0;1696;0;0;0;0;9;0;881;0;0;0;0
12.12.17;21:25:00;1;674;13719;0;2;0;1652;0;0;0;0;3;0;984;0;0;0;0;4;0;1346;0;0;0;0;5;0;3739;2;0;0;0;0;0;6;0;1438;2;0;0;0;0;0;7;0;1677;0;0;0;0;8;0;1696;0;0;0;0;9;0;881;0;0;0;0
12.12.17;21:20:00;1;753;13659;0;2;0;1652;0;0;0;0;3;0;984;0;0;0;0;4;0;1346;0;0;0;0;5;0;3739;2;0;0;0;0;0;6;0;1438;2;0;0;0;0;0;7;0;1677;0;0;0;0;8;0;1696;0;0;0;0;9;0;881;0;0;0;0
12.12.17;21:15:00;1;953;13581;0;2;0;1652;0;0;0;0;3;0;984;0;0;0;0;4;0;1346;0;0;0;0;5;0;3739;2;0;0;0;0;0;6;0;1438;2;0;0;0;0;0;7;0;1677;0;0;0;0;8;0;1696;0;0;0;0;9;0;881;0;0;0;0
12.12.17;21:10:00;1;751;13507;0;2;0;1652;0;0;0;0;3;0;984;0;0;0;0;4;0;1346;0;0;0;0;5;0;3739;2;0;0;0;0;0;6;0;1438;2;0;0;0;0;0;7;0;1677;0;0;0;0;8;0;1696;0;0;0;0;9;0;881;0;0;0;0
12.12.17;21:05:00;1;802;13444;0;2;0;1652;0;0;0;0;3;0;984;0;0;0;0;4;0;1346;0;0;0;0;5;0;3739;2;0;0;0;0;0;6;0;1438;2;0;0;0;0;0;7;0;1677;0;0;0;0;8;0;1696;0;0;0;0;9;0;881;0;0;0;0
12.12.17;21:00:00;1;1112;13362;0;2;0;1652;0;0;0;0;3;0;984;0;0;0;0;4;0;1346;0;0;0;0;5;0;3739;2;0;0;0;0;0;6;0;1438;2;0;0;0;0;0;7;0;1677;0;0;0;0;8;0;1696;0;0;0;0;9;0;881;0;0;0;0
12.12.17;20:55:00;1;759;13285;0;2;0;1652;0;0;0;0;3;0;984;0;0;0;0;4;0;1346;0;0;0;0;5;0;3739;2;0;0;0;0;0;6;0;1438;2;0;0;0;0;0;7;0;1677;0;0;0;0;8;0;1696;0;0;0;0;9;0;881;0;0;0;0
12.12.17;20:50:00;1;764;13221;0;2;0;1652;0;0;0;0;3;0;984;0;0;0;0;4;0;1346;0;0;0;0;5;0;3739;2;0;0;0;0;0;6;0;1438;2;0;0;0;0;0;7;0;1677;0;0;0;0;8;0;1696;0;0;0;0;9;0;881;0;0;0;0
12.12.17;20:45:00;1;1384;13158;0;2;0;1652;0;0;0;0;3;0;984;0;0;0;0;4;0;1346;0;0;0;0;5;0;3739;2;0;0;0;0;0;6;0;1438;2;0;0;0;0;0;7;0;1677;0;0;0;0;8;0;1696;0;0;0;0;9;0;881;0;0;0;0
12.12.17;20:40:00;1;798;13066;0;2;0;1652;0;0;0;0;3;0;984;0;0;0;0;4;0;1346;0;0;0;0;5;0;3739;2;0;0;0;0;0;6;0;1438;2;0;0;0;0;0;7;0;1677;0;0;0;0;8;0;1696;0;0;0;0;9;0;881;0;0;0;0
12.12.17;20:35:00;1;834;12999;0;2;0;1652;0;0;0;0;3;0;984;0;0;0;0;4;0;1346;0;0;0;0;5;0;3739;2;0;0;0;0;0;6;0;1438;2;0;0;0;0;0;7;0;1677;0;0;0;0;8;0;1696;0;0;0;0;9;0;881;0;0;0;0
12.12.17;20:30:00;1;1724;12929;0;2;0;1652;0;0;0;0;3;0;984;0;0;0;0;4;0;1346;0;0;0;0;5;0;3739;2;0;0;0;0;0;6;0;1438;2;0;0;0;0;0;7;0;1677;0;0;0;0;8;0;1696;0;0;0;0;9;0;881;0;0;0;0
12.12.17;20:25:00;1;1343;12810;0;2;0;1652;0;0;0;0;3;0;984;0;0;0;0;4;0;1346;0;0;0;0;5;0;3739;2;0;0;0;0;0;6;0;1438;2;0;0;0;0;0;7;0;1677;0;0;0;0;8;0;1696;0;0;0;0;9;0;881;0;0;0;0
12.12.17;20:20:00;1;914;12703;0;2;0;1652;0;0;0;0;3;0;984;0;0;0;0;4;0;1346;0;0;0;0;5;0;3739;2;0;0;0;0;0;6;0;1438;2;0;0;0;0;0;7;0;1677;0;0;0;0;8;0;1696;0;0;0;0;9;0;881;0;0;0;0
12.12.17;20:15:00;1;1716;12609;0;2;0;1652;0;0;0;0;3;0;984;0;0;0;0;4;0;1346;0;0;0;0;5;0;3739;2;0;0;0;0;0;6;0;1438;2;0;0;0;0;0;7;0;1677;0;0;0;0;8;0;1696;0;0;0;0;9;0;881;0;0;0;0
12.12.17;20:10:00;1;1958;12475;0;2;0;1652;0;0;0;0;3;0;984;0;0;0;0;4;0;1346;0;0;0;0;5;0;3739;2;0;0;0;0;0;6;0;1438;2;0;0;0;0;0;7;0;1677;0;0;0;0;8;0;1696;0;0;0;0;9;0;881;0;0;0;0
12.12.17;20:05:00;1;1129;12348;0;2;0;1652;0;0;0;0;3;0;984;0;0;0;0;4;0;1346;0;0;0;0;5;0;3739;2;0;0;0;0;0;6;0;1438;2;0;0;0;0;0;7;0;1677;0;0;0;0;8;0;1696;0;0;0;0;9;0;881;0;0;0;0
12.12.17;20:00:00;1;1120;12240;0;2;0;1652;0;0;0;0;3;0;984;0;0;0;0;4;0;1346;0;0;0;0;5;0;3739;2;0;0;0;0;0;6;0;1438;2;0;0;0;0;0;7;0;1677;0;0;0;0;8;0;1696;0;0;0;0;9;0;881;0;0;0;0
12.12.17;19:55:00;1;1988;12144;0;2;0;1652;0;0;0;0;3;0;984;0;0;0;0;4;0;1346;0;0;0;0;5;0;3739;2;0;0;0;0;0;6;0;1438;2;0;0;0;0;0;7;0;1677;0;0;0;0;8;0;1696;0;0;0;0;9;0;881;0;0;0;0
12.12.17;19:50:00;1;925;12012;0;2;0;1652;0;0;0;0;3;0;984;0;0;0;0;4;0;1346;0;0;0;0;5;0;3739;2;0;0;0;0;0;6;0;1438;2;0;0;0;0;0;7;0;1677;0;0;0;0;8;0;1696;0;0;0;0;9;0;881;0;0;0;0
12.12.17;19:45:00;1;1095;11933;0;2;0;1652;0;0;0;0;3;0;984;0;0;0;0;4;0;1346;0;0;0;0;5;0;3739;2;0;0;0;0;0;6;0;1438;2;0;0;0;0;0;7;0;1677;0;0;0;0;8;0;1696;0;0;0;0;9;0;881;0;0;0;0
12.12.17;19:40:00;1;1434;11835;0;2;0;1652;0;0;0;0;3;0;984;0;0;0;0;4;0;1346;0;0;0;0;5;0;3739;2;0;0;0;0;0;6;0;1438;2;0;0;0;0;0;7;0;1677;0;0;0;0;8;0;1696;0;0;0;0;9;0;881;0;0;0;0
12.12.17;19:35:00;1;1292;11700;0;2;0;1652;0;0;0;0;3;0;984;0;0;0;0;4;0;1346;0;0;0;0;5;0;3739;2;0;0;0;0;0;6;0;1438;2;0;0;0;0;0;7;0;1677;0;0;0;0;8;0;1696;0;0;0;0;9;0;881;0;0;0;0
12.12.17;19:30:00;1;1189;11590;0;2;0;1652;0;0;0;0;3;0;984;0;0;0;0;4;0;1346;0;0;0;0;5;0;3739;2;0;0;0;0;0;6;0;1438;2;0;0;0;0;0;7;0;1677;0;0;0;0;8;0;1696;0;0;0;0;9;0;881;0;0;0;0
12.12.17;19:25:00;1;1168;11481;0;2;0;1652;0;0;0;0;3;0;984;0;0;0;0;4;0;1346;0;0;0;0;5;0;3739;2;0;0;0;0;0;6;0;1438;2;0;0;0;0;0;7;0;1677;0;0;0;0;8;0;1696;0;0;0;0;9;0;881;0;0;0;0
12.12.17;19:20:00;1;1254;11378;0;2;0;1652;0;0;0;0;3;0;984;0;0;0;0;4;0;1346;0;0;0;0;5;0;3739;2;0;0;0;0;0;6;0;1438;2;0;0;0;0;0;7;0;1677;0;0;0;0;8;0;1696;0;0;0;0;9;0;881;0;0;0;0
12.12.17;19:15:00;1;1459;11259;0;2;0;1652;0;0;0;0;3;0;984;0;0;0;0;4;0;1346;0;0;0;0;5;0;3739;2;0;0;0;0;0;6;0;1438;2;0;0;0;0;0;7;0;1677;0;0;0;0;8;0;1696;0;0;0;0;9;0;881;0;0;0;0
12.12.17;19:10:00;1;1116;11150;0;2;0;1652;0;0;0;0;3;0;984;0;0;0;0;4;0;1346;0;0;0;0;5;0;3739;2;0;0;0;0;0;6;0;1438;2;0;0;0;0;0;7;0;1677;0;0;0;0;8;0;1696;0;0;0;0;9;0;881;0;0;0;0
12.12.17;19:05:00;1;1104;11056;0;2;0;1652;0;0;0;0;3;0;984;0;0;0;0;4;0;1346;0;0;0;0;5;0;3739;2;0;0;0;0;0;6;0;1438;2;0;0;0;0;0;7;0;1677;0;0;0;0;8;0;1696;0;0;0;0;9;0;881;0;0;0;0
12.12.17;19:00:00;1;1109;10964;0;2;0;1652;0;0;0;0;3;0;984;0;0;0;0;4;0;1346;0;0;0;0;5;0;3739;2;0;0;0;0;0;6;0;1438;2;0;0;0;0;0;7;0;1677;0;0;0;0;8;0;1696;0;0;0;0;9;0;881;0;0;0;0
12.12.17;18:55:00;1;1500;10872;0;2;0;1652;0;0;0;0;3;0;984;0;0;0;0;4;0;1346;0;0;0;0;5;0;3739;2;0;0;0;0;0;6;0;1438;2;0;0;0;0;0;7;0;1677;0;0;0;0;8;0;1696;0;0;0;0;9;0;881;0;0;0;0
12.12.17;18:50:00;1;1126;10752;0;2;0;1652;0;0;0;0;3;0;984;0;0;0;0;4;0;1346;0;0;0;0;5;0;3739;2;0;0;0;0;0;6;0;1438;2;0;0;0;0;0;7;0;1677;0;0;0;0;8;0;1696;0;0;0;0;9;0;881;0;0;0;0
12.12.17;18:45:00;1;1248;10657;0;2;0;1652;0;0;0;0;3;0;984;0;0;0;0;4;0;1346;0;0;0;0;5;0;3739;2;0;0;0;0;0;6;0;1438;2;0;0;0;0;0;7;0;1677;0;0;0;0;8;0;1696;0;0;0;0;9;0;881;0;0;0;0
12.12.17;18:40:00;1;1265;10549;0;2;0;1652;0;0;0;0;3;0;984;0;0;0;0;4;0;1346;0;0;0;0;5;0;3739;2;0;0;0;0;0;6;0;1438;2;0;0;0;0;0;7;0;1677;0;0;0;0;8;0;1696;0;0;0;0;9;0;881;0;0;0;0
12.12.17;18:35:00;1;2446;10442;0;2;0;1652;0;0;0;0;3;0;984;0;0;0;0;4;0;1346;0;0;0;0;5;0;3739;2;0;0;0;0;0;6;0;1438;2;0;0;0;0;0;7;0;1677;0;0;0;0;8;0;1696;0;0;0;0;9;0;881;0;0;0;0
12.12.17;18:30:00;1;1628;10282;0;2;0;1652;0;0;0;0;3;0;984;0;0;0;0;4;0;1346;0;0;0;0;5;0;3739;2;0;0;0;0;0;6;0;1438;2;0;0;0;0;0;7;0;1677;0;0;0;0;8;0;1696;0;0;0;0;9;0;881;0;0;0;0
12.12.17;18:25:00;1;2025;10146;0;2;0;1652;0;0;0;0;3;0;984;0;0;0;0;4;0;1346;0;0;0;0;5;0;3739;2;0;0;0;0;0;6;0;1438;2;0;0;0;0;0;7;0;1677;0;0;0;0;8;0;1696;0;0;0;0;9;0;881;0;0;0;0
12.12.17;18:20:00;1;1616;9972;0;2;0;1652;0;0;0;0;3;0;984;0;0;0;0;4;0;1346;0;0;0;0;5;0;3739;2;0;0;0;0;0;6;0;1438;2;0;0;0;0;0;7;0;1677;0;0;0;0;8;0;1696;0;0;0;0;9;0;881;0;0;0;0
12.12.17;18:15:00;1;2461;9811;0;2;0;1652;0;0;0;0;3;0;984;0;0;0;0;4;0;1346;0;0;0;0;5;0;3739;2;0;0;0;0;0;6;0;1438;2;0;0;0;0;0;7;0;1677;0;0;0;0;8;0;1696;0;0;0;0;9;0;881;0;0;0;0
12.12.17;18:10:00;1;1616;9617;0;2;0;1652;0;0;0;0;3;0;984;0;0;0;0;4;0;1346;0;0;0;0;5;0;3739;2;0;0;0;0;0;6;0;1438;2;0;0;0;0;0;7;0;1677;0;0;0;0;8;0;1696;0;0;0;0;9;0;881;0;0;0;0
12.12.17;18:05:00;1;1597;9482;0;2;0;1652;0;0;0;0;3;0;984;0;0;0;0;4;0;1346;0;0;0;0;5;0;3739;2;0;0;0;0;0;6;0;1438;2;0;0;0;0;0;7;0;1677;0;0;0;0;8;0;1696;0;0;0;0;9;0;881;0;0;0;0
12.12.17;18:00:00;1;1779;9349;0;2;0;1652;0;0;0;0;3;0;984;0;0;0;0;4;0;1346;0;0;0;0;5;0;3739;2;0;0;0;0;0;6;0;1438;2;0;0;0;0;0;7;0;1677;0;0;0;0;8;0;1696;0;0;0;0;9;0;881;0;0;0;0
12.12.17;17:55:00;1;1481;9181;0;2;0;1652;0;0;0;0;3;0;984;0;0;0;0;4;0;1346;0;0;0;0;5;0;3739;2;0;0;0;0;0;6;0;1438;2;0;0;0;0;0;7;0;1677;0;0;0;0;8;0;1696;0;0;0;0;9;0;881;0;0;0;0
12.12.17;17:50:00;1;1343;9059;0;2;0;1652;0;0;0;0;3;0;984;0;0;0;0;4;0;1346;0;0;0;0;5;0;3739;2;0;0;0;0;0;6;0;1438;2;0;0;0;0;0;7;0;1677;0;0;0;0;8;0;1696;0;0;0;0;9;0;881;0;0;0;0
12.12.17;17:45:00;1;1221;8948;0;2;0;1652;0;0;0;0;3;0;984;0;0;0;0;4;0;1346;0;0;0;0;5;0;3739;2;0;0;0;0;0;6;0;1438;2;0;0;0;0;0;7;0;1677;0;0;0;0;8;0;1696;0;0;0;0;9;0;881;0;0;0;0
12.12.17;17:40:00;1;3594;8818;0;2;0;1652;0;0;0;0;3;0;984;0;0;0;0;4;0;1346;0;0;0;0;5;0;3739;2;0;0;0;0;0;6;0;1438;2;0;0;0;0;0;7;0;1677;0;0;0;0;8;0;1696;0;0;0;0;9;0;881;0;0;0;0
12.12.17;17:35:00;1;2817;8514;0;2;0;1652;0;0;0;0;3;0;984;0;0;0;0;4;0;1346;0;0;0;0;5;0;3739;2;0;0;0;0;0;6;0;1438;2;0;0;0;0;0;7;0;1677;0;0;0;0;8;0;1696;0;0;0;0;9;0;881;0;0;0;0
12.12.17;17:30:00;1;2930;8281;0;2;0;1652;0;0;0;0;3;0;984;0;0;0;0;4;0;1346;0;0;0;0;5;0;3739;2;0;0;0;0;0;6;0;1438;2;0;0;0;0;0;7;0;1677;0;0;0;0;8;0;1696;0;0;0;0;9;0;881;0;0;0;0
12.12.17;17:25:00;1;1840;8043;0;2;0;1652;0;0;0;0;3;0;984;0;0;0;0;4;0;1346;0;0;0;0;5;0;3739;2;0;0;0;0;0;6;0;1438;2;0;0;0;0;0;7;0;1677;0;0;0;0;8;0;1696;0;0;0;0;9;0;881;0;0;0;0
12.12.17;17:20:00;1;2578;7873;0;2;0;1652;0;0;0;0;3;0;984;0;0;0;0;4;0;1346;0;0;0;0;5;0;3739;2;0;0;0;0;0;6;0;1438;2;0;0;0;0;0;7;0;1677;0;0;0;0;8;0;1696;0;0;0;0;9;0;881;0;0;0;0
12.12.17;17:15:00;1;2794;7699;0;2;0;1652;0;0;0;0;3;0;984;0;0;0;0;4;0;1346;0;0;0;0;5;0;3739;2;0;0;0;0;0;6;0;1438;2;0;0;0;0;0;7;0;1677;0;0;0;0;8;0;1696;0;0;0;0;9;0;881;0;0;0;0
12.12.17;17:10:00;1;2905;7464;0;2;0;1652;0;0;0;0;3;0;984;0;0;0;0;4;0;1346;0;0;0;0;5;0;3739;2;0;0;0;0;0;6;0;1438;2;0;0;0;0;0;7;0;1677;0;0;0;0;8;0;1696;0;0;0;0;9;0;881;0;0;0;0
12.12.17;17:05:00;1;2761;7223;0;2;0;1652;0;0;0;0;3;0;984;0;0;0;0;4;0;1346;0;0;0;0;5;0;3739;2;0;0;0;0;0;6;0;1438;2;0;0;0;0;0;7;0;1677;0;0;0;0;8;0;1696;0;0;0;0;9;0;881;0;0;0;0
12.12.17;17:00:00;1;1643;7048;0;2;0;1652;0;0;0;0;3;0;984;0;0;0;0;4;0;1346;0;0;0;0;5;0;3739;2;0;0;0;0;0;6;0;1438;2;0;0;0;0;0;7;0;1677;0;0;0;0;8;0;1696;0;0;0;0;9;0;881;0;0;0;0
12.12.17;16:55:00;1;797;6932;0;2;0;1652;0;0;0;0;3;0;984;0;0;0;0;4;0;1346;0;0;0;0;5;0;3739;2;0;0;0;0;0;6;0;1438;2;0;0;0;0;0;7;0;1677;0;0;0;0;8;0;1696;0;0;0;0;9;0;881;0;0;0;0
12.12.17;16:50:00;1;821;6866;0;2;0;1652;0;0;0;0;3;0;984;0;0;0;0;4;0;1346;0;0;0;0;5;0;3739;2;0;0;0;0;0;6;0;1438;2;0;0;0;0;0;7;0;1677;0;0;0;0;8;0;1696;0;0;0;0;9;0;881;0;0;0;0
12.12.17;16:45:00;1;885;6798;0;2;0;1652;0;0;0;0;3;0;984;0;0;0;0;4;0;1346;0;0;0;0;5;0;3739;2;0;0;0;0;0;6;0;1438;2;0;0;0;0;0;7;0;1677;0;0;0;0;8;0;1696;0;0;0;0;9;0;881;0;0;0;0
12.12.17;16:40:00;1;404;6711;0;2;0;1652;0;0;0;0;3;0;984;0;0;0;0;4;0;1346;0;0;0;0;5;0;3739;2;0;0;0;0;0;6;0;1438;2;0;0;0;0;0;7;0;1677;0;0;0;0;8;0;1696;0;0;0;0;9;0;881;0;0;0;0
12.12.17;16:35:00;1;359;6676;0;2;0;1652;0;0;0;0;3;0;984;0;0;0;0;4;0;1346;0;0;0;0;5;0;3739;2;0;0;0;0;0;6;0;1438;2;0;0;0;0;0;7;0;1677;0;0;0;0;8;0;1696;0;0;0;0;9;0;881;0;0;0;0
12.12.17;16:30:00;1;370;6646;0;2;0;1652;0;0;0;0;3;0;984;0;0;110;5;4;0;1346;0;0;0;0;5;0;3739;2;0;0;0;0;0;6;0;1438;0;0;0;0;0;0;7;0;1677;0;0;0;0;8;0;1696;0;0;0;0;9;0;881;0;0;0;0
12.12.17;16:25:00;1;607;6601;0;2;0;1652;0;0;226;6;3;0;984;6;0;295;12;4;0;1346;0;0;21;2;5;0;3739;2;0;0;0;0;0;6;0;1438;2;0;0;0;0;0;7;0;1677;0;0;0;0;8;0;1696;0;0;0;0;9;0;881;0;0;0;0
12.12.17;16:20:00;1;369;6553;0;2;0;1652;6;0;309;8;3;0;984;6;0;362;12;4;0;1346;2;0;86;7;5;0;3739;2;0;0;52;51;6;6;0;1438;0;1;0;30;61;3;7;0;1677;0;0;0;0;8;0;1696;0;0;0;0;9;0;881;0;0;0;0
12.12.17;16:15:00;1;364;6523;0;2;0;1652;6;0;361;8;3;0;984;6;2;429;12;4;0;1346;1;0;147;8;5;0;3739;23;0;4;396;418;19;6;0;1438;23;8;4;180;509;18;7;0;1677;11;0;278;12;8;0;1696;11;0;290;11;9;0;881;6;0;306;8
12.12.17;16:10:00;1;606;6492;0;2;0;1652;6;0;375;8;3;0;984;6;1;452;12;4;0;1346;1;0;169;8;5;0;3739;26;0;3;411;505;20;6;0;1438;23;7;3;181;543;18;7;0;1677;6;0;328;12;8;0;1696;6;0;335;11;9;0;881;6;0;353;8
12.12.17;16:05:00;1;405;6427;0;2;0;1652;6;0;378;8;3;0;984;6;0;460;12;4;0;1346;1;0;173;8;5;0;3739;26;0;1;415;601;20;6;0;1438;23;6;2;181;546;18;7;0;1677;6;0;336;12;8;0;1696;6;0;343;12;9;0;881;6;0;364;8
12.12.17;16:00:00;1;499;6392;0;2;0;1652;6;0;392;9;3;0;984;3;4;455;12;4;0;1346;1;0;199;8;5;6;3738;4;0;4;415;647;20;6;0;1438;23;7;3;182;568;18;7;0;1677;6;0;380;12;8;0;1696;6;0;387;12;9;0;881;6;0;406;9
12.12.17;15:55:00;1;675;6360;0;2;0;1652;6;0;401;9;3;3;984;6;7;452;12;4;0;1346;1;0;216;9;5;9;3738;4;1;3;419;662;20;6;0;1438;1;8;2;450;581;19;7;0;1677;6;0;399;12;8;0;1696;6;0;401;12;9;0;881;6;0;437;9
12.12.17;15:50:00;1;320;6299;0;2;0;1652;6;0;408;9;3;1;983;6;3;498;12;4;0;1346;1;0;222;9;5;9;3737;4;2;5;425;677;21;6;0;1438;8;6;0;398;587;19;7;0;1677;6;0;413;12;8;0;1696;6;0;431;12;9;0;881;6;0;466;9
12.12.17;15:45:00;1;307;6272;0;2;0;1652;6;0;412;9;3;1;983;6;4;496;12;4;0;1346;3;0;220;9;5;71;3736;4;18;22;371;586;22;6;0;1438;23;6;4;569;592;20;7;0;1677;6;1;434;12;8;0;1696;6;1;438;12;9;1;881;4;0;468;9
12.12.17;15:40:00;1;788;6247;0;2;3;1652;6;10;396;9;3;1;983;6;8;481;12;4;0;1346;3;0;212;9;5;75;3730;4;21;22;371;586;22;6;0;1438;1;5;3;512;594;20;7;0;1677;6;1;442;13;8;1;1696;6;1;442;12;9;1;881;6;2;464;9
12.12.17;15:35:00;1;304;6188;0;2;2;1651;6;5;405;9;3;0;983;6;0;531;12;4;0;1346;3;0;210;9;5;81;3724;4;21;28;371;586;22;6;0;1438;8;9;2;540;597;20;7;0;1677;6;2;444;13;8;0;1696;6;0;471;12;9;2;881;6;2;492;9
12.12.17;15:30:00;1;312;6163;0;2;2;1651;6;6;406;9;3;2;983;3;9;487;12;4;0;1346;3;0;218;10;5;80;3717;4;22;26;370;586;22;6;42;1438;1;18;19;476;442;21;7;0;1677;6;0;451;13;8;1;1696;4;3;431;12;9;0;880;6;1;489;9
12.12.17;15:25:00;1;590;6137;0;2;4;1651;6;8;411;9;3;2;983;6;6;511;12;4;0;1346;1;0;228;10;5;102;3710;4;39;40;370;586;22;6;62;1435;4;33;31;449;412;22;7;3;1677;3;7;437;13;8;1;1696;3;7;440;13;9;2;880;6;3;509;9
12.12.17;15:20:00;1;342;6080;0;2;6;1651;6;10;420;10;3;2;983;6;7;526;13;4;3;1346;3;3;200;10;5;128;3701;4;55;53;371;586;22;6;81;1429;4;38;34;449;412;22;7;1;1677;6;7;481;13;8;4;1696;6;6;482;13;9;2;880;6;3;532;9
12.12.17;15:15:00;1;421;6050;0;2;38;1650;6;57;370;10;3;5;982;6;10;530;13;4;9;1346;3;9;200;10;5;149;3691;4;60;61;371;586;22;6;92;1422;4;42;38;449;412;22;7;6;1677;6;18;453;13;8;6;1695;6;9;483;13;9;1;880;4;5;531;9
12.12.17;15:10:00;1;885;6016;0;2;54;1647;4;82;363;10;3;8;982;6;19;511;13;4;12;1345;3;13;199;10;5;162;3678;4;68;66;370;586;22;6;100;1415;4;52;49;449;412;22;7;4;1676;6;9;493;14;8;5;1695;6;10;494;13;9;5;880;3;11;503;9
12.12.17;15:05:00;1;422;5946;0;2;7;1643;6;12;419;10;3;0;981;6;0;556;13;4;10;1344;3;10;200;10;5;141;3665;4;58;60;371;586;22;6;91;1406;4;32;29;449;412;22;7;1;1676;6;9;483;14;8;4;1694;6;9;484;13;9;3;879;6;5;533;9
12.12.17;15:00:00;1;395;5911;0;2;26;1642;6;39;394;10;3;6;981;4;16;508;13;4;10;1343;3;10;199;10;5;148;3653;4;65;59;370;586;22;6;93;1398;4;45;40;449;412;22;7;1;1676;6;7;486;14;8;1;1694;6;7;483;14;9;1;879;6;4;536;10
12.12.17;14:55:00;1;944;5877;0;2;75;1640;4;101;361;11;3;8;981;6;14;540;13;4;28;1342;3;29;198;10;5;205;3640;4;100;90;371;586;22;6;129;1390;4;52;50;449;412;22;7;45;1676;4;80;403;14;8;49;1694;4;81;406;14;9;4;879;6;9;545;10
12.12.17;14:50:00;1;382;5812;0;2;88;1634;4;113;369;11;3;15;980;6;25;520;13;4;43;1340;3;45;198;10;5;228;3623;4;115;98;371;586;22;6;144;1379;4;66;61;449;412;21;7;49;1672;4;86;461;14;8;58;1690;4;94;450;14;9;6;879;6;8;557;10
12.12.17;14:45:00;1;382;5780;0;2;97;1627;4;126;381;11;3;35;979;6;54;503;14;4;57;1336;3;59;197;10;5;254;3604;4;127;111;370;586;22;6;161;1367;4;97;87;448;412;21;7;71;1668;4;107;437;14;8;77;1685;4;106;435;14;9;8;878;4;10;552;10
12.12.17;14:40:00;1;617;5748;0;2;123;1619;4;152;386;11;3;68;976;4;104;466;14;4;73;1331;3;76;198;11;5;304;3583;4;148;132;371;586;22;6;190;1354;4;92;85;449;412;21;7;100;1662;4;139;429;14;8;106;1679;4;136;434;14;9;19;877;3;28;543;10
12.12.17;14:35:00;1;620;5687;0;2;138;1609;4;168;381;11;3;78;971;4;115;473;14;4;87;1325;3;91;203;11;5;331;3557;4;167;138;371;586;22;6;209;1338;4;125;114;449;412;21;7;127;1654;4;159;432;14;8;130;1670;4;163;432;14;9;27;876;3;37;547;10
12.12.17;14:30:00;1;687;5657;0;2;184;1597;4;211;388;11;3;108;964;4;146;493;14;4;132;1318;5;137;226;11;5;386;3529;4;205;166;385;578;22;6;240;1320;4;117;107;449;412;21;7;161;1643;4;194;451;14;8;126;1659;4;157;386;11;9;86;872;4;111;488;11
12.12.17;14:25:00;1;194;5592;0;2;229;1582;4;262;392;11;3;137;955;4;174;511;14;4;179;1307;5;187;230;11;5;507;3496;4;258;218;412;619;22;6;300;1299;4;143;133;449;412;21;7;221;1630;4;256;475;14;8;217;1647;4;258;469;14;9;120;865;4;147;524;11
12.12.17;14:20:00;1;439;5576;0;2;218;1563;4;248;384;11;3;128;944;4;166;499;14;4;167;1292;5;173;232;11;5;476;3454;4;241;204;398;601;22;6;351;1274;4;178;183;555;539;21;7;194;1611;4;242;451;14;8;205;1628;4;239;477;14;9;111;855;4;138;514;11
12.12.17;14:15:00;1;235;5527;0;2;286;1545;4;317;384;12;3;173;933;4;215;517;14;4;228;1278;5;237;236;11;5;613;3414;4;300;265;407;649;22;6;457;1244;4;221;216;594;563;21;7;281;1595;4;321;475;14;8;291;1611;4;327;477;14;9;156;846;4;184;526;11
12.12.17;14:10:00;1;237;5507;0;2;351;1521;4;387;401;12;3;214;919;4;256;521;14;4;291;1259;5;304;241;11;5;744;3363;4;375;324;419;658;22;6;553;1206;4;269;262;586;571;21;7;345;1571;4;392;485;14;8;366;1587;4;397;481;14;9;194;833;4;226;526;11
12.12.17;14:05:00;1;465;5487;0;2;254;1492;4;284;390;12;3;153;901;4;190;521;14;4;198;1235;5;207;231;11;5;555;3301;4;287;248;417;631;22;6;425;1200;4;223;219;572;565;21;7;265;1543;4;306;469;14;8;269;1557;4;311;473;14;9;147;817;4;177;524;11
12.12.17;14:00:00;1;193;5437;0;2;250;1471;4;282;389;12;3;152;888;4;189;510;14;4;201;1219;5;209;232;11;5;565;3255;4;287;249;406;628;22;6;430;1200;4;233;234;593;567;21;7;248;1521;4;289;465;14;8;259;1534;4;289;468;14;9;136;805;4;164;524;11
12.12.17;13:55:00;1;194;5421;0;2;294;1450;4;330;398;12;3;180;876;4;219;508;14;4;237;1202;5;247;236;11;5;639;3208;4;321;277;414;669;22;6;471;1200;4;237;243;587;572;21;7;287;1501;4;315;475;14;8;283;1513;4;317;470;14;9;148;794;4;181;518;11
12.12.17;13:50:00;1;906;5405;0;2;310;1426;4;344;394;12;3;189;861;4;231;501;14;4;258;1183;5;269;230;11;5;700;3155;4;346;302;417;678;22;6;513;1200;4;270;267;583;575;21;7;312;1477;4;354;489;14;8;309;1490;4;356;497;14;9;178;781;4;209;518;11
12.12.17;13:45:00;1;194;5357;0;2;322;1400;4;356;400;12;3;198;845;4;239;506;14;4;271;1161;5;282;238;11;5;720;3096;4;365;313;423;663;22;6;538;1200;4;285;277;585;569;21;7;328;1451;4;379;486;14;8;351;1464;4;385;485;14;9;188;766;4;218;524;11
12.12.17;13:40:00;1;193;5341;0;2;306;1373;4;343;399;12;3;186;829;4;226;513;14;4;249;1139;5;259;235;11;5;678;3037;4;340;290;411;655;22;6;494;1200;4;242;238;583;567;21;7;294;1423;4;336;484;14;8;313;1435;4;347;473;14;9;164;751;4;194;521;11
12.12.17;13:35:00;1;759;5324;0;2;354;1348;4;393;403;12;3;218;813;4;260;519;14;4;295;1118;5;307;235;11;5;770;2981;4;390;336;411;682;22;6;577;1200;4;306;310;582;569;21;7;373;1399;4;412;481;14;8;379;1409;4;422;478;14;9;207;737;4;238;518;11
12.12.17;13:30:00;1;192;5276;0;2;432;1318;4;471;405;12;3;267;795;4;311;514;14;4;368;1094;5;384;239;11;5;941;2916;4;472;406;424;690;21;6;693;1200;4;350;346;598;574;21;7;418;1368;4;490;482;14;8;453;1377;4;496;480;14;9;242;720;4;276;523;11